This demonstration page uses our WeatherBlox Daily Observations layout. Learn more.

Left ArrowRight Arrow

38.80484, -77.04692

Hourly Observations for October 8, 2019

Temp ( °F °C ) Dew Point ( °F °C ) Humidity (%) Winds ( mph kmh ) Pressure ( in mb ) Visibility ( mi km ) Precip ( " mm )
12:52 am 00:52 Cloudy 63 17.2 57 13.9 81 81 N 15 24 30.17 1022 10 16 0.00 0.00
1:00 am 01:00 Cloudy 63 17.2 57 13.9 81 81 N 15 24 30.18 1022 10 16 0.00 0.00
1:07 am 01:07 Cloudy 63 17.2 57 13.9 81 81 N 17 28 30.17 1022 10 16 0.00 0.00
1:34 am 01:34 Cloudy 63 17.2 57 13.9 81 81 N 15 24 30.18 1022 10 16 0.00 0.00
1:52 am 01:52 Cloudy 63 17.2 57 13.9 81 81 N 14 22 30.17 1022 10 16 0.00 0.00
2:27 am 02:27 Cloudy 62 16.7 56 13.3 80 80 N 18 30 30.17 1022 10 16 0.00 0.00
2:34 am 02:34 Cloudy 62 16.7 56 13.3 80 80 N 20 31 30.18 1022 10 16 0.00 0.00
2:52 am 02:52 Cloudy 62 16.7 56 13.3 80 80 NNE 17 28 30.16 1022 10 16 0.00 0.00
3:52 am 03:52 Cloudy 62 16.7 55 12.8 78 78 N 18 30 30.17 1022 10 16 0.00 0.00
4:14 am 04:14 Cloudy 62 16.7 54 12.2 75 75 NNE 20 31 30.17 1022 10 16 0.00 0.00
4:52 am 04:52 Cloudy 62 16.7 55 12.8 78 78 N 16 26 30.18 1022 10 16 0.00 0.00
5:08 am 05:08 Cloudy 61 16.1 55 12.8 81 81 NNE 17 28 30.18 1022 10 16 0.00 0.00
5:52 am 05:52 Cloudy 62 16.7 55 12.8 78 78 NNE 18 30 30.19 1022 10 16 0.00 0.00
6:52 am 06:52 Cloudy 62 16.7 53 11.7 73 73 NNE 15 24 30.20 1023 10 16 0.00 0.00
7:14 am 07:14 Cloudy 62 16.7 51 10.6 67 67 NNE 17 28 30.20 1023 10 16 0.00 0.00
7:52 am 07:52 Cloudy 62 16.7 52 11.1 70 70 NNE 18 30 30.20 1023 10 16 0.00 0.00
8:52 am 08:52 Cloudy 63 17.2 51 10.6 65 65 NNE 14 22 30.20 1023 10 16 0.00 0.00
9:52 am 09:52 Cloudy 64 17.8 50 10 60 60 NNE 21 33 30.21 1023 10 16 0.00 0.00
10:52 am 10:52 Cloudy 65 18.3 50 10 59 59 NE 18 30 30.22 1023 10 16 0.00 0.00
11:52 am 11:52 Cloudy 65 18.3 52 11.1 63 63 NE 17 28 30.21 1023 10 16 0.00 0.00
12:52 pm 12:52 Cloudy 66 18.9 52 11.1 61 61 NE 16 26 30.19 1023 10 16 0.00 0.00
1:52 pm 13:52 Cloudy 66 18.9 50 10 56 56 NNE 16 26 30.17 1022 10 16 0.00 0.00
2:52 pm 14:52 Cloudy 67 19.4 49 9.4 53 53 NE 15 24 30.17 1022 10 16 0.00 0.00
3:52 pm 15:52 Mostly Cloudy 68 20 47 8.3 47 47 NE 15 24 30.16 1021 10 16 0.00 0.00
4:52 pm 16:52 Mostly Cloudy 68 20 46 7.8 45 45 NE 12 19 30.16 1021 10 16 0.00 0.00
5:52 pm 17:52 Cloudy 68 20 45 7.2 44 44 NNE 12 19 30.17 1022 10 16 0.00 0.00
6:52 pm 18:52 Mostly Cloudy 68 20 46 7.8 45 45 NNE 10 17 30.17 1022 10 16 0.00 0.00
7:52 pm 19:52 Cloudy 67 19.4 49 9.4 53 53 N 14 22 30.19 1022 10 16 0.00 0.00
8:52 pm 20:52 Cloudy 65 18.3 47 8.3 52 52 NNE 15 24 30.19 1023 10 16 0.00 0.00
9:52 pm 21:52 Cloudy 65 18.3 46 7.8 51 51 NNE 15 24 30.19 1022 10 16 0.00 0.00
10:52 pm 22:52 Cloudy 65 18.3 46 7.8 51 51 NNE 14 22 30.20 1023 10 16 0.00 0.00
11:52 pm 23:52 Cloudy 64 17.8 44 6.7 48 48 NNE 12 19 30.19 1022 10 16 0.00 0.00

Powered by AerisWeather